User: anonymous   Login
Location: Pedimozza
(42.0500°N, 9.3500°E)
Time: 05:29:29
(UTC+00:00)
Language:

Unknown - Orbit

View from above orbital plane
View from above orbital plane
View from above satellite
View from above satellite

Ground track
Ground track

The orbit data is extracted from the following two-line orbital elements,

1 44254U 19029V   19288.37302924  .00001002  00000-0  88097-4 0  9997
2 44254  52.9996 244.5592 0001848  94.0237 266.0962 15.05496676 21832
Epoch (UTC): 15 October 2019 08:57:09
Eccentricity: 0.0001848
inclination: 52.9996°
perigee height: 549 km
apogee height: 551 km
right ascension of ascending node: 244.5592°
argument of perigee: 94.0237°
revolutions per day: 15.05496676
mean anomaly at epoch: 266.0962°
orbit number at epoch: 2183

The dashed part of the orbit path shows where the satellite is in the earth's shadow,  

DLR